Hourly Data Report for May 06, 2003

TORONTO CITY
ONTARIO

43°40'00.000" N
79°24'00.000" W
112.50 m
6158355
71508
XTO

Download Data

Hourly Data (May 2003)
Hourly Data Report for May 6, 2003
TIME
LST
Temp Definition
°C
Dew Point Definition
°C
Rel Hum Definition
%
Precip. Amount Definition
mm

Wind Dir Definition
10's deg

Wind Spd Definition
km/h
Visibility Definition
km
Stn Press Definition
kPa
Hmdx Definition


Wind Chill Definition


Weather Definition


00:00 6.5 6.0 97   LegendMM LegendMM LegendMM 99.29     LegendNANA
01:00 6.4 5.8 96   LegendMM LegendMM LegendMM 99.28     LegendNANA
02:00 6.5 5.9 96   LegendMM LegendMM LegendMM 99.28     LegendNANA
03:00 6.6 6.0 96   LegendMM LegendMM LegendMM 99.28     LegendNANA
04:00 6.7 6.2 97   LegendMM LegendMM LegendMM 99.30     LegendNANA
05:00 6.9 6.5 97   LegendMM LegendMM LegendMM 99.36     LegendNANA
06:00 7.2 6.9 98   LegendMM LegendMM LegendMM 99.40     LegendNANA
07:00 8.4 7.9 97   LegendMM LegendMM LegendMM 99.41     LegendNANA
08:00 9.5 8.6 94   LegendMM LegendMM LegendMM 99.38     LegendNANA
09:00 9.5 8.1 91   LegendMM LegendMM LegendMM 99.44     LegendNANA
10:00 10.5 8.6 88   LegendMM LegendMM LegendMM 99.45     LegendNANA
11:00 11.9 9.4 85   LegendMM LegendMM LegendMM 99.45     LegendNANA
12:00 13.5 10.5 82   LegendMM LegendMM LegendMM 99.43     LegendNANA
13:00 14.8 11.4 80   LegendMM LegendMM LegendMM 99.38     LegendNANA
14:00 16.6 12.7 78   LegendMM LegendMM LegendMM 99.39     LegendNANA
15:00 18.7 13.6 72   LegendMM LegendMM LegendMM 99.38     LegendNANA
16:00 17.8 12.3 70   LegendMM LegendMM LegendMM 99.42     LegendNANA
17:00 18.8 11.0 60   LegendMM LegendMM LegendMM 99.48     LegendNANA
18:00 17.5 10.2 62   LegendMM LegendMM LegendMM 99.55     LegendNANA
19:00 16.9 10.3 65   LegendMM LegendMM LegendMM 99.60     LegendNANA
20:00 16.1 10.1 68   LegendMM LegendMM LegendMM 99.63     LegendNANA
21:00 15.7 10.4 71   LegendMM LegendMM LegendMM 99.69     LegendNANA
22:00 15.0 10.6 75   LegendMM LegendMM LegendMM 99.75     LegendNANA
23:00 14.0 10.3 78   LegendMM LegendMM LegendMM 99.75     LegendNANA

Notes on Data Quality.

Legend

  • E = Estimated
  • M = Missing
  • NA = Not Available*
  • [empty] = Indicates an unobserved value
Date modified: